[[{"header":{"parameterUnit":"m.s-1","parameterCategory":2,"la1":30.2992,"la2":30.254,"lo1":-89.0895,"lo2":-89.0443,"dy":0.0025,"dx":0.0025,"nx":19,"ny":19,"refTime":"2026-05-03T03:00:00:Z","depth":"0","parameterNumber":2,"parameterNumberName":"U-component_of_CURRENTS"},"data":[0,0,0,-0.1147,-0.1147,-0.1138,-0.1138,-0.1161,-0.1161,0,0,0,0,0,0,0,0,0,0,0,-0.1148,-0.1148,-0.1147,-0.1147,-0.1138,-0.1138,-0.1161,-0.1161,0,0,0,0,0,0,0,0,0,0,0,-0.1148,-0.1148,-0.1148,-0.1147,-0.1138,-0.1138,-0.1161,-0.1159,0,0,0,0,0,0,0,0,0,0,-0.1163,-0.1157,-0.1148,-0.1148,-0.1147,-0.1138,-0.1138,-0.1159,-0.1159,-0.1175,0,-0.1171,0,-0.1169,-0.1164,-0.1164,0,0,0,-0.1146,-0.1157,-0.1157,-0.1148,-0.1147,-0.1138,-0.1142,-0.1159,-0.1159,-0.1176,-0.1172,-0.1172,-0.1169,-0.1164,-0.1164,-0.1232,-0.1233,0,0,-0.1147,-0.1146,-0.1156,-0.1157,-0.1142,-0.1142,-0.1142,-0.1159,-0.1158,-0.1172,-0.1173,-0.117,-0.1164,-0.1165,-0.1232,-0.1232,0,0,0,-0.1149,-0.1146,-0.1145,-0.1157,-0.1153,-0.1142,-0.1141,-0.1157,-0.1157,-0.1173,-0.117,-0.1165,-0.1165,-0.1231,-0.1232,-0.1241,0,0,0,-0.1149,-0.1147,-0.1145,-0.1144,-0.1153,-0.115,-0.1139,-0.1156,-0.1158,-0.117,-0.1165,-0.1165,-0.1231,-0.1232,-0.124,-0.1214,0,0,0,-0.1149,-0.1147,-0.1146,-0.1144,-0.1141,-0.115,-0.115,-0.1156,-0.1157,-0.1164,-0.1165,-0.123,-0.1231,-0.1238,-0.1213,-0.1146,0,0,0,-0.1148,-0.1154,-0.1145,-0.1156,-0.1141,-0.1164,-0.115,-0.1165,-0.1174,-0.1165,-0.1231,-0.1232,-0.1238,-0.1212,-0.1147,-0.0923,-0.0902,0,0,-0.1159,-0.1155,-0.1165,-0.1157,-0.1186,-0.1165,-0.1196,-0.1197,-0.1198,-0.1226,-0.1227,-0.124,-0.1213,-0.1146,-0.0989,-0.0965,0,0,0,-0.1171,-0.1176,-0.1184,-0.1196,-0.1208,-0.1215,-0.122,-0.1219,-0.1236,-0.1208,-0.1261,-0.1243,-0.12,-0.1068,-0.105,-0.0823,-0.1237,-0.1237,-0.1237,-0.118,-0.1194,-0.1212,-0.1231,-0.1245,-0.1257,-0.1258,-0.1261,-0.1268,-0.128,-0.1268,-0.1244,-0.1108,-0.1091,-0.0863,-0.1303,-0.1303,-0.1303,-0.1303,-0.1193,-0.1189,-0.1222,-0.1242,-0.1261,-0.1281,-0.1291,-0.1291,-0.1268,-0.1295,-0.1252,-0.1106,-0.107,-0.0834,-0.1304,-0.1304,-0.1303,-0.1303,-0.1303,-0.1175,-0.117,-0.1197,-0.1217,-0.1238,-0.1261,-0.1222,-0.1249,-0.1253,-0.1234,-0.1035,-0.1032,-0.0802,-0.1197,-0.1196,-0.1196,-0.1195,-0.1195,-0.1195,-0.1121,-0.1149,-0.1138,-0.1171,-0.1163,-0.116,-0.1159,-0.1124,-0.1031,-0.1,-0.0997,-0.075,-0.121,-0.1188,-0.1189,-0.119,-0.1191,-0.1192,-0.1192,-0.1047,-0.1061,-0.1037,-0.1029,-0.1017,-0.0944,-0.0974,-0.0814,-0.0774,-0.0677,-0.0427,-0.0858,-0.0812,-0.0824,-0.0793,-0.0691,-0.0691,-0.0691,-0.0691,-0.0974,-0.0988,-0.0924,-0.0881,-0.0846,-0.083,-0.0608,-0.0465,-0.0232,-0.0056,-0.0098,-0.0061,-0.0091,-0.0003,-0.0034,0.0012,0.0316,0.0317,0.0318,-0.09,-0.0896,-0.0818,-0.0801,-0.0756,-0.0681,-0.0424,-0.0092,0.0275,0.0372,0.0174,0.0132,0.0187,0.0121,0.0252,0.0191,0.0262,0,0]},{"header":{"parameterUnit":"m.s-1","parameterCategory":2,"la1":30.2992,"la2":30.254,"lo1":-89.0895,"lo2":-89.0443,"dy":0.0025,"dx":0.0025,"nx":19,"ny":19,"refTime":"2026-05-03T03:00:00:Z","depth":"0","parameterNumber":3,"parameterNumberName":"V-component_of_CURRENTS"},"data":[0,0,0,-0.0576,-0.0576,-0.0572,-0.0572,-0.0549,-0.0549,0,0,0,0,0,0,0,0,0,0,0,-0.0577,-0.0577,-0.0576,-0.0576,-0.0572,-0.0572,-0.0549,-0.0549,0,0,0,0,0,0,0,0,0,0,0,-0.0577,-0.0577,-0.0577,-0.0576,-0.0572,-0.0572,-0.0549,-0.0556,0,0,0,0,0,0,0,0,0,0,-0.0562,-0.0566,-0.0577,-0.0577,-0.0576,-0.0572,-0.0572,-0.0556,-0.0556,-0.0548,0,-0.0549,0,-0.0551,-0.0547,-0.0547,0,0,0,-0.0573,-0.0566,-0.0567,-0.0577,-0.0576,-0.0572,-0.0573,-0.0556,-0.0555,-0.0547,-0.0549,-0.0548,-0.055,-0.0547,-0.0547,-0.0597,-0.0597,0,0,-0.0573,-0.0573,-0.0567,-0.0566,-0.0577,-0.0573,-0.0573,-0.0556,-0.0554,-0.0549,-0.0548,-0.055,-0.0547,-0.0547,-0.0596,-0.0597,0,0,0,-0.0576,-0.0573,-0.0574,-0.0567,-0.0568,-0.0573,-0.0572,-0.0555,-0.0556,-0.0548,-0.055,-0.0547,-0.0547,-0.0595,-0.0596,-0.0686,0,0,0,-0.0576,-0.0576,-0.0574,-0.0574,-0.0569,-0.0564,-0.0572,-0.0557,-0.0555,-0.055,-0.0547,-0.0547,-0.0594,-0.0596,-0.0682,-0.0686,0,0,0,-0.0576,-0.0576,-0.0576,-0.0574,-0.0574,-0.0564,-0.0564,-0.0556,-0.0556,-0.0547,-0.0546,-0.0594,-0.0596,-0.0678,-0.0681,-0.0605,0,0,0,-0.0575,-0.0595,-0.0576,-0.0599,-0.0574,-0.0603,-0.0564,-0.0573,-0.057,-0.0547,-0.0595,-0.0596,-0.0677,-0.0678,-0.0603,-0.0392,-0.0381,0,0,-0.0605,-0.0598,-0.0614,-0.0598,-0.0645,-0.0603,-0.0657,-0.0628,-0.0595,-0.0596,-0.0597,-0.0683,-0.068,-0.0604,-0.049,-0.0475,0,0,0,-0.0627,-0.0645,-0.0652,-0.0673,-0.0677,-0.0703,-0.0681,-0.0678,-0.0687,-0.0601,-0.0692,-0.0687,-0.0636,-0.0507,-0.0497,-0.0415,-0.0604,-0.0604,-0.0604,-0.0674,-0.0686,-0.0729,-0.0753,-0.0769,-0.0776,-0.0792,-0.0786,-0.0748,-0.0775,-0.0769,-0.0783,-0.0653,-0.0641,-0.0564,-0.0797,-0.0797,-0.0797,-0.0798,-0.0742,-0.0768,-0.0793,-0.084,-0.0861,-0.0896,-0.0907,-0.0894,-0.0871,-0.0867,-0.0812,-0.0621,-0.0633,-0.0555,-0.0803,-0.0802,-0.0802,-0.0801,-0.0801,-0.0775,-0.0791,-0.0823,-0.0883,-0.0929,-0.0945,-0.0921,-0.0937,-0.0917,-0.0906,-0.0649,-0.0644,-0.0556,-0.0839,-0.0838,-0.0838,-0.0838,-0.0838,-0.0838,-0.0784,-0.0821,-0.0854,-0.0911,-0.0926,-0.0926,-0.0904,-0.0848,-0.073,-0.0691,-0.0688,-0.0542,-0.0792,-0.0768,-0.0834,-0.0834,-0.0835,-0.0835,-0.0835,-0.0808,-0.0812,-0.0852,-0.0871,-0.0884,-0.0798,-0.0771,-0.0551,-0.0494,-0.0383,-0.032,-0.0547,-0.0464,-0.047,-0.0436,-0.0412,-0.0412,-0.0412,-0.0412,-0.08,-0.0815,-0.0834,-0.0837,-0.0811,-0.0738,-0.0437,-0.0221,-0.0087,-0.0024,-0.0109,-0.0086,-0.0107,-0.0004,-0.002,0.0022,0.0162,0.0162,0.0163,-0.08,-0.0807,-0.0803,-0.0814,-0.078,-0.0623,-0.0263,0.0155,0.0284,0.0183,-0.0046,-0.0071,-0.005,-0.0088,0.0061,0.0032,0.0097,0,0]}],[{"header":{"parameterUnit":"m.s-1","parameterCategory":2,"la1":30.2992,"la2":30.254,"lo1":-89.0895,"lo2":-89.0443,"dy":0.0025,"dx":0.0025,"nx":19,"ny":19,"refTime":"2026-05-03T03:00:00:Z","depth":"2","parameterNumber":2,"parameterNumberName":"U-component_of_CURRENTS"},"data":[0,0,0,-0.1004,-0.1004,-0.1007,-0.1007,-0.1017,-0.1017,0,0,0,0,0,0,0,0,0,0,0,-0.1003,-0.1003,-0.1004,-0.1004,-0.1007,-0.1007,-0.1017,-0.1017,0,0,0,0,0,0,0,0,0,0,0,-0.1003,-0.1003,-0.1003,-0.1004,-0.1007,-0.1007,-0.1017,-0.1013,0,0,0,0,0,0,0,0,0,0,-0.101,-0.1006,-0.1003,-0.1003,-0.1004,-0.1007,-0.1007,-0.1013,-0.1013,-0.1017,0,-0.1016,0,-0.1017,-0.1018,-0.1018,0,0,0,-0.1005,-0.1006,-0.1008,-0.1003,-0.1005,-0.1007,-0.1006,-0.1013,-0.1014,-0.1018,-0.1017,-0.1017,-0.1017,-0.1018,-0.1018,-0.1022,-0.1022,0,0,-0.1005,-0.1003,-0.1007,-0.1008,-0.1004,-0.1006,-0.1006,-0.1013,-0.1013,-0.1017,-0.1017,-0.1018,-0.1018,-0.1018,-0.1022,-0.1022,0,0,0,-0.1004,-0.1002,-0.1004,-0.1007,-0.1008,-0.1006,-0.1006,-0.1013,-0.1013,-0.1017,-0.1018,-0.1018,-0.1018,-0.1022,-0.1022,-0.103,0,0,0,-0.1004,-0.1002,-0.1004,-0.1003,-0.1008,-0.1009,-0.1005,-0.1013,-0.1014,-0.1018,-0.1018,-0.1018,-0.1022,-0.1022,-0.103,-0.1034,0,0,0,-0.1003,-0.1002,-0.1002,-0.1003,-0.1004,-0.1009,-0.101,-0.1013,-0.1014,-0.1018,-0.1018,-0.1022,-0.1022,-0.103,-0.1034,-0.0984,0,0,0,-0.1001,-0.1006,-0.1002,-0.1013,-0.1004,-0.1019,-0.101,-0.1025,-0.1031,-0.1018,-0.1022,-0.1022,-0.103,-0.1034,-0.0985,-0.0804,-0.0787,0,0,-0.1008,-0.1007,-0.1015,-0.1012,-0.1025,-0.1019,-0.1028,-0.1033,-0.1028,-0.102,-0.102,-0.103,-0.1034,-0.0985,-0.08,-0.0782,0,0,0,-0.1019,-0.102,-0.1026,-0.1031,-0.1041,-0.1037,-0.1039,-0.1037,-0.1031,-0.103,-0.1026,-0.1028,-0.0996,-0.0889,-0.0875,-0.1022,-0.1022,-0.1022,-0.1022,-0.1014,-0.1023,-0.1031,-0.1037,-0.1047,-0.1051,-0.1049,-0.104,-0.1041,-0.1037,-0.1032,-0.0998,-0.0884,-0.0871,-0.1028,-0.1028,-0.1028,-0.1028,-0.1028,-0.1011,-0.1005,-0.1022,-0.1031,-0.1036,-0.1042,-0.1046,-0.1045,-0.1021,-0.1035,-0.1002,-0.09,-0.0856,-0.1028,-0.1028,-0.1028,-0.1028,-0.1028,-0.1028,-0.099,-0.0984,-0.0998,-0.1003,-0.1012,-0.1027,-0.1003,-0.1023,-0.102,-0.1007,-0.0845,-0.0843,-0.0985,-0.0973,-0.0973,-0.0973,-0.0973,-0.0972,-0.0972,-0.0948,-0.0961,-0.095,-0.0969,-0.0965,-0.0969,-0.0973,-0.0941,-0.0862,-0.0833,-0.083,-0.0978,-0.098,-0.0981,-0.0969,-0.097,-0.097,-0.0971,-0.0971,-0.0888,-0.0902,-0.088,-0.0874,-0.0865,-0.0798,-0.0836,-0.0699,-0.0672,-0.0589,-0.0711,-0.0718,-0.0688,-0.0697,-0.069,-0.0604,-0.0604,-0.0604,-0.0604,-0.0836,-0.0847,-0.0795,-0.0765,-0.0736,-0.0709,-0.0507,-0.0391,-0.0381,-0.0368,-0.0379,-0.036,-0.0378,-0.0332,-0.0349,-0.0336,-0.0158,-0.0157,-0.0157,-0.0776,-0.0775,-0.0712,-0.0699,-0.0664,-0.0569,-0.0312,-0.0044,0.0007,-0.0147,-0.0377,-0.0559,-0.0559,-0.0577,-0.0531,-0.0549,-0.0538,0,0]},{"header":{"parameterUnit":"m.s-1","parameterCategory":2,"la1":30.2992,"la2":30.254,"lo1":-89.0895,"lo2":-89.0443,"dy":0.0025,"dx":0.0025,"nx":19,"ny":19,"refTime":"2026-05-03T03:00:00:Z","depth":"2","parameterNumber":3,"parameterNumberName":"V-component_of_CURRENTS"},"data":[0,0,0,-0.0392,-0.0392,-0.0397,-0.0397,-0.0376,-0.0376,0,0,0,0,0,0,0,0,0,0,0,-0.0389,-0.0389,-0.0392,-0.0392,-0.0397,-0.0397,-0.0376,-0.0376,0,0,0,0,0,0,0,0,0,0,0,-0.0389,-0.0389,-0.0389,-0.0392,-0.0397,-0.0397,-0.0376,-0.0378,0,0,0,0,0,0,0,0,0,0,-0.0376,-0.0379,-0.0389,-0.0389,-0.0392,-0.0397,-0.0397,-0.0378,-0.0378,-0.0367,0,-0.0371,0,-0.0374,-0.0374,-0.0374,0,0,0,-0.0388,-0.0379,-0.0382,-0.0389,-0.0392,-0.0397,-0.0394,-0.0378,-0.0378,-0.0366,-0.037,-0.037,-0.0374,-0.0374,-0.0374,-0.0349,-0.0349,0,0,-0.0388,-0.0387,-0.0382,-0.0381,-0.0397,-0.0394,-0.0394,-0.0378,-0.0378,-0.037,-0.037,-0.0374,-0.0374,-0.0373,-0.0349,-0.0349,0,0,0,-0.039,-0.0387,-0.039,-0.0382,-0.0386,-0.0394,-0.0394,-0.0378,-0.038,-0.0369,-0.0373,-0.0373,-0.0373,-0.0349,-0.0349,-0.0376,0,0,0,-0.0389,-0.0389,-0.039,-0.039,-0.0387,-0.0387,-0.0395,-0.0381,-0.0379,-0.0374,-0.0373,-0.0373,-0.0349,-0.0349,-0.0376,-0.0397,0,0,0,-0.0388,-0.0388,-0.039,-0.039,-0.0394,-0.0387,-0.0388,-0.0381,-0.0382,-0.0374,-0.0373,-0.0349,-0.0349,-0.0375,-0.0396,-0.0363,0,0,0,-0.0385,-0.0398,-0.039,-0.0407,-0.0394,-0.0406,-0.0388,-0.0394,-0.0391,-0.0373,-0.0349,-0.0349,-0.0375,-0.0395,-0.0363,-0.0306,-0.0302,0,0,-0.0402,-0.04,-0.0411,-0.0405,-0.0422,-0.0404,-0.0408,-0.0397,-0.038,-0.0352,-0.0351,-0.0376,-0.0395,-0.0363,-0.0295,-0.0291,0,0,0,-0.0418,-0.0425,-0.043,-0.0437,-0.0437,-0.0426,-0.0413,-0.0401,-0.0382,-0.0378,-0.0364,-0.0376,-0.0354,-0.0319,-0.0316,-0.0348,-0.0348,-0.0348,-0.0348,-0.0435,-0.044,-0.0456,-0.0457,-0.0457,-0.044,-0.0429,-0.0404,-0.0392,-0.0384,-0.0389,-0.0374,-0.0337,-0.0334,-0.0373,-0.0373,-0.0373,-0.0373,-0.0373,-0.0465,-0.0478,-0.0472,-0.0492,-0.0474,-0.0472,-0.0439,-0.0427,-0.0397,-0.0398,-0.0374,-0.034,-0.0332,-0.0375,-0.0375,-0.0375,-0.0375,-0.0374,-0.0374,-0.0485,-0.049,-0.0502,-0.0518,-0.0515,-0.0498,-0.0473,-0.0457,-0.0424,-0.0415,-0.0341,-0.034,-0.0384,-0.0392,-0.0392,-0.0392,-0.0392,-0.0392,-0.0392,-0.0501,-0.051,-0.0534,-0.0548,-0.0554,-0.0545,-0.0502,-0.0462,-0.0395,-0.0366,-0.0364,-0.0379,-0.0379,-0.0384,-0.0392,-0.0392,-0.0392,-0.0392,-0.0392,-0.0531,-0.054,-0.0569,-0.0584,-0.0588,-0.0548,-0.0508,-0.0388,-0.0344,-0.0293,-0.0315,-0.0317,-0.0296,-0.0297,-0.0299,-0.0285,-0.0285,-0.0285,-0.0285,-0.055,-0.0557,-0.059,-0.0607,-0.0602,-0.055,-0.0415,-0.0315,-0.0262,-0.0254,-0.0255,-0.025,-0.0255,-0.0231,-0.0234,-0.0235,-0.0204,-0.0204,-0.0204,-0.0568,-0.0573,-0.0594,-0.0611,-0.0609,-0.0521,-0.0356,-0.0184,-0.014,-0.0205,-0.0284,-0.0271,-0.0267,-0.0273,-0.0239,-0.0243,-0.0245,0,0]}],[{"header":{"parameterUnit":"m.s-1","parameterCategory":2,"la1":30.2992,"la2":30.254,"lo1":-89.0895,"lo2":-89.0443,"dy":0.0025,"dx":0.0025,"nx":19,"ny":19,"refTime":"2026-05-03T03:00:00:Z","depth":"4","parameterNumber":2,"parameterNumberName":"U-component_of_CURRENTS"},"data":[0,0,0,-0.0745,-0.0745,-0.0789,-0.079,-0.0803,-0.0803,0,0,0,0,0,0,0,0,0,0,0,-0.0732,-0.0732,-0.0745,-0.0746,-0.0789,-0.079,-0.0803,-0.0803,0,0,0,0,0,0,0,0,0,0,0,-0.0731,-0.0732,-0.0732,-0.0746,-0.0789,-0.079,-0.0803,-0.0781,0,0,0,0,0,0,0,0,0,0,-0.0744,-0.074,-0.0732,-0.0732,-0.0746,-0.0789,-0.079,-0.078,-0.0782,-0.0771,0,-0.0781,0,-0.079,-0.0803,-0.0803,0,0,0,-0.0747,-0.0739,-0.0747,-0.0732,-0.0746,-0.0789,-0.077,-0.0782,-0.0784,-0.0773,-0.0781,-0.0782,-0.079,-0.0803,-0.0803,-0.0784,-0.0784,0,0,-0.0744,-0.0741,-0.0746,-0.0749,-0.0761,-0.0768,-0.0771,-0.0783,-0.0788,-0.0782,-0.0783,-0.0791,-0.0803,-0.0803,-0.0785,-0.0784,0,0,0,-0.0737,-0.0739,-0.0749,-0.0748,-0.0758,-0.077,-0.0773,-0.0788,-0.079,-0.0783,-0.0791,-0.0803,-0.0803,-0.0785,-0.0784,-0.0795,0,0,0,-0.0735,-0.0735,-0.0748,-0.0747,-0.0758,-0.078,-0.0777,-0.0789,-0.0791,-0.0791,-0.0803,-0.0803,-0.0785,-0.0785,-0.0795,-0.0803,0,0,0,-0.0729,-0.0734,-0.074,-0.0746,-0.0764,-0.078,-0.0784,-0.079,-0.0795,-0.0803,-0.0803,-0.0785,-0.0785,-0.0795,-0.0803,-0.0778,0,0,0,-0.0723,-0.0732,-0.074,-0.0754,-0.0764,-0.0783,-0.0784,-0.0805,-0.0814,-0.0803,-0.0785,-0.0784,-0.0795,-0.0803,-0.0778,-0.0652,0,0,0,-0.0729,-0.0733,-0.0741,-0.0749,-0.0764,-0.0776,-0.0786,-0.0803,-0.0798,-0.0778,-0.0779,-0.0795,-0.0803,-0.0778,-0.0627,0,0,0,0,-0.0739,-0.0742,-0.0749,-0.0761,-0.0777,-0.0787,-0.0799,-0.0799,-0.0795,-0.0801,-0.0783,-0.0787,-0.0771,-0.0698,-0.0782,-0.0782,-0.0782,-0.0782,-0.0783,-0.0731,-0.0741,-0.0751,-0.0762,-0.0776,-0.0793,-0.0799,-0.0795,-0.0793,-0.0789,-0.0787,-0.0764,-0.0686,-0.0775,-0.0775,-0.0775,-0.0775,-0.0775,-0.0775,-0.0725,-0.0724,-0.0745,-0.0759,-0.0774,-0.0784,-0.0792,-0.0795,-0.0777,-0.0782,-0.0766,-0.0704,-0.0775,-0.0775,-0.0775,-0.0775,-0.0775,-0.0775,-0.0775,-0.0704,-0.0703,-0.0723,-0.0743,-0.0764,-0.0784,-0.0778,-0.0795,-0.0783,-0.0777,-0.0673,-0.0761,-0.0769,-0.076,-0.0759,-0.0759,-0.0759,-0.0759,-0.0759,-0.0668,-0.0686,-0.0693,-0.0725,-0.0738,-0.0757,-0.0773,-0.0747,-0.0746,-0.0666,-0.0772,-0.0759,-0.0759,-0.0767,-0.0758,-0.0758,-0.0758,-0.0758,-0.0759,-0.062,-0.0641,-0.0642,-0.0656,-0.0677,-0.0681,-0.0724,-0.0639,-0.0595,-0.0532,-0.0595,-0.0603,-0.0583,-0.0588,-0.059,-0.0528,-0.0526,-0.0524,0,-0.0582,-0.0594,-0.0583,-0.058,-0.057,-0.0619,-0.0524,-0.0504,-0.0488,-0.047,-0.0599,-0.0675,-0.0679,-0.0662,-0.0664,-0.0668,0,0,0,-0.054,-0.0545,-0.0516,-0.0524,-0.0507,-0.0465,-0.0489,-0.0434,-0.0514,-0.0411,-0.0482,-0.0493,-0.0654,-0.0755,-0.0744,-0.0744,-0.0756,0,0]},{"header":{"parameterUnit":"m.s-1","parameterCategory":2,"la1":30.2992,"la2":30.254,"lo1":-89.0895,"lo2":-89.0443,"dy":0.0025,"dx":0.0025,"nx":19,"ny":19,"refTime":"2026-05-03T03:00:00:Z","depth":"4","parameterNumber":3,"parameterNumberName":"V-component_of_CURRENTS"},"data":[0,0,0,-0.0246,-0.0246,-0.0267,-0.0267,-0.0252,-0.0252,0,0,0,0,0,0,0,0,0,0,0,-0.0238,-0.0238,-0.0245,-0.0246,-0.0267,-0.0267,-0.0253,-0.0252,0,0,0,0,0,0,0,0,0,0,0,-0.0238,-0.0238,-0.0238,-0.0246,-0.0267,-0.0267,-0.0253,-0.0246,0,0,0,0,0,0,0,0,0,0,-0.0231,-0.0233,-0.0238,-0.0238,-0.0246,-0.0266,-0.0267,-0.0246,-0.0247,-0.0233,0,-0.024,0,-0.0247,-0.0251,-0.0251,0,0,0,-0.0243,-0.0232,-0.0237,-0.0238,-0.0247,-0.0266,-0.0256,-0.0247,-0.0247,-0.0233,-0.024,-0.024,-0.0246,-0.0251,-0.025,-0.0193,-0.0193,0,0,-0.0241,-0.024,-0.0237,-0.0238,-0.0256,-0.0256,-0.0257,-0.0247,-0.0249,-0.024,-0.024,-0.0246,-0.025,-0.025,-0.0194,-0.0193,0,0,0,-0.0241,-0.0239,-0.0245,-0.0238,-0.0245,-0.0256,-0.0258,-0.0249,-0.0251,-0.024,-0.0246,-0.025,-0.025,-0.0194,-0.0194,-0.0194,0,0,0,-0.024,-0.0239,-0.0245,-0.0244,-0.0246,-0.0254,-0.026,-0.0252,-0.0251,-0.0246,-0.025,-0.025,-0.0195,-0.0194,-0.0196,-0.0207,0,0,0,-0.0236,-0.0239,-0.0243,-0.0244,-0.0255,-0.0254,-0.0256,-0.0252,-0.0255,-0.0251,-0.025,-0.0195,-0.0194,-0.0196,-0.0208,-0.0215,0,0,0,-0.0232,-0.024,-0.0243,-0.0252,-0.0255,-0.0256,-0.0256,-0.026,-0.0258,-0.025,-0.0195,-0.0194,-0.0197,-0.0208,-0.0215,-0.0243,0,0,0,-0.0238,-0.024,-0.0246,-0.0249,-0.0252,-0.0253,-0.0239,-0.0241,-0.0231,-0.0196,-0.0195,-0.0195,-0.0208,-0.0215,-0.0178,0,0,0,0,-0.0245,-0.0249,-0.0251,-0.0255,-0.0254,-0.0241,-0.0238,-0.0222,-0.0195,-0.0226,-0.0173,-0.018,-0.0186,-0.0201,-0.0188,-0.0188,-0.0189,-0.0189,-0.0189,-0.0248,-0.0249,-0.0255,-0.0252,-0.0247,-0.0229,-0.021,-0.0181,-0.0181,-0.0159,-0.0164,-0.0148,-0.016,-0.0138,-0.0138,-0.0138,-0.0138,-0.0138,-0.0138,-0.0259,-0.0266,-0.0257,-0.0266,-0.0245,-0.0232,-0.0181,-0.0169,-0.0135,-0.0131,-0.0136,-0.0178,-0.0138,-0.0138,-0.0138,-0.0138,-0.0138,-0.0138,-0.0138,-0.0269,-0.0272,-0.028,-0.0288,-0.0274,-0.0248,-0.023,-0.0191,-0.0147,-0.0139,-0.0171,-0.0151,-0.0172,-0.0153,-0.0153,-0.0154,-0.0154,-0.0154,-0.0154,-0.0283,-0.0286,-0.0312,-0.0316,-0.0326,-0.0319,-0.0272,-0.0248,-0.0205,-0.0178,-0.0155,-0.0153,-0.0153,-0.0172,-0.0155,-0.0154,-0.0154,-0.0154,-0.0154,-0.0304,-0.0318,-0.0349,-0.037,-0.0388,-0.0377,-0.0344,-0.0287,-0.0265,-0.0236,-0.0193,-0.0191,-0.0199,-0.0198,-0.022,-0.0216,-0.0216,-0.0216,0,-0.0326,-0.0332,-0.0381,-0.0415,-0.0429,-0.0407,-0.0377,-0.0339,-0.0274,-0.0266,-0.0264,-0.0217,-0.0214,-0.0226,-0.0225,-0.0252,0,0,0,-0.0347,-0.0356,-0.0394,-0.0426,-0.0444,-0.0395,-0.0362,-0.0341,-0.0284,-0.0267,-0.0224,-0.0222,-0.0215,-0.0158,-0.0165,-0.0165,-0.0197,0,0]}]]